Location: Allisons_Woods
(35.8920°N, 81.8170°W)
Time: 14:44:44
(UTC-04:00)

Daily predictions for brighter satellites

Satellite Brightness Start Highest point End
(mag) Time Altitude Azimuth Time Altitude Azimuth Time Altitude Azimuth
Cosmos 1570 Rocket 4.0 20:19:15 10° S 20:24:31 70° ESE 20:29:46 10° NNE
Okean 2 3.8 20:22:39 10° N 20:26:39 44° E 20:30:35 10° SSE
Meteor 1-23 Rocket 4.3 20:21:47 10° N 20:27:26 70° E 20:33:08 10° SSE
SJ-6B 4.2 20:27:10 10° S 20:30:42 41° W 20:34:15 10° NNW
OTV 4 0.5 20:28:03 10° WNW 20:31:01 75° NNE 20:33:59 10° E
FENGYUN 3A 4.0 20:30:31 10° SE 20:35:34 45° ENE 20:40:39 10° N
CZ-2D R/B 4.0 20:32:57 10° SE 20:36:28 34° ENE 20:40:01 10° N
Cosmos 1656 4.2 20:32:57 10° S 20:38:04 37° ESE 20:43:08 10° NE
FengYun 1-2 T 4.3 20:32:52 10° SSE 20:38:28 73° ENE 20:44:05 10° N
Hubble Space Telescope 2.7 20:37:53 10° WSW 20:40:50 19° SSW 20:43:47 10° SSE
Cosmos 1821 Rocket 4.1 20:36:24 10° S 20:42:31 83° W 20:48:38 10° N
Helios 1A 3.5 20:38:46 10° S 20:42:53 64° WSW 20:47:03 10° NNW
Tiangong 1 3.1 20:41:36 10° NW 20:44:05 22° N 20:46:34 10° NE
Cosmos 2227 Rocket 2.4 20:39:03 10° NNW 20:44:35 52° ENE 20:50:04 10° SE
Cosmos 1605 Rocket 4.1 20:39:25 10° S 20:45:37 58° E 20:51:46 10° NNE
Cosmos 1500 4.5 20:46:14 10° SE 20:49:05 21° E 20:51:57 10° NE
ERS-1 Rocket 4.2 20:48:08 13° ESE 20:51:17 23° ENE 20:55:08 10° NNE
Lacrosse 5 3.6 20:49:48 10° NNW 20:53:29 20° NE 20:56:52 11° ENE
Cosmos 1461 2.7 20:52:51 10° NNW 20:56:53 67° ENE 20:59:59 15° SE
Meteor 1-5 Rocket 4.4 20:51:48 10° SSW 20:57:05 71° W 21:02:33 10° N
DELTA 2 R/B (1) 3.8 20:51:35 10° WNW 20:57:09 67° N 21:01:40 16° E
Cosmos 1346 Rocket 2.8 20:54:30 10° N 20:58:28 90° W 21:02:28 10° S
Cosmos 2082 3.7 20:54:05 10° NNW 20:59:40 66° ENE 21:05:00 11° SSE
Cosmos 2297 Rocket 2.5 20:54:22 10° N 20:59:52 50° ENE 21:04:20 15° SE
H-2A R/B 3.9 21:03:38 12° ENE 21:04:03 13° ENE 21:05:49 10° NE
Cosmos 1898 Rocket 4.4 21:00:23 10° N 21:05:06 32° ENE 21:07:48 20° ESE
Meteor 2-15 Rocket 4.5 21:03:23 10° N 21:09:28 83° W 21:15:31 10° S
Cosmos 1626 Rocket 3.6 21:05:22 10° N 21:09:42 55° E 21:13:07 15° SSE
Cosmos 1455 Rocket 4.0 21:06:58 10° SSW 21:11:09 50° W 21:15:24 10° N
Cosmos 1515 4.1 21:11:32 10° N 21:15:13 42° E 21:16:39 29° SE
Cosmos 468 Rocket 3.9 21:12:46 10° S 21:17:47 58° ESE 21:22:48 10° NNE
Cosmos 2123 Rocket 4.2 21:12:17 10° N 21:18:26 74° W 21:24:35 10° S
Cosmos 1602 Rocket 3.5 21:14:33 10° N 21:19:01 73° E 21:22:29 16° SSE
RESURS DK-1 3.8 21:16:39 10° N 21:19:55 22° ENE 21:20:28 21° ENE
Cosmos 2084 4.1 21:18:54 10° NNW 21:22:44 37° NE 21:23:56 30° E
CZ-4 DEB 3.1 21:22:56 41° E 21:23:05 41° ENE 21:26:05 10° N
Cosmos 841 Rocket 4.4 21:24:57 26° E 21:24:57 26° E 21:28:58 10° NE
Cosmos 1743 3.5 21:26:38 33° E 21:26:38 33° E 21:29:56 10° NNE
Cosmos 1459 Rocket 4.1 21:20:59 11° SSE 21:26:32 47° E 21:32:20 10° NNE
Cosmos 1814 Rocket 4.0 21:22:57 10° S 21:28:13 62° ESE 21:33:28 10° NNE
Cosmos 220 Rocket 3.8 21:25:43 10° NNW 21:29:57 86° ENE 21:31:56 31° SSE
Cosmos 1697 Rocket 2.6 21:27:46 10° SSW 21:33:25 84° ESE 21:39:05 10° NNE
Cosmos 1066 Rocket 4.3 21:29:35 10° N 21:35:14 62° E 21:38:16 28° SSE
Chunghua 1 4.5 21:31:51 10° W 21:35:41 76° S 21:36:25 55° ESE
OAO 2 Rocket 3.2 21:31:26 10° W 21:36:28 82° S 21:38:28 38° E
ALOS 4.1 21:42:58 10° SSW 21:47:02 30° W 21:51:08 10° NW
Cosmos 858 Rocket 4.4 21:43:03 10° NNW 21:48:21 73° ENE 21:49:56 45° SE
Cosmos 1606 Rocket 3.9 21:50:20 45° ENE 21:50:20 45° ENE 21:53:59 10° NNE
ARGOS 4.5 21:53:32 23° ENE 21:53:32 23° ENE 21:57:21 10° NNE
ASTEX 1 4.0 21:48:40 10° NNE 21:52:42 39° ENE 21:52:42 39° ENE
USA 186 4.3 21:52:39 10° SW 21:54:51 18° W 21:57:02 10° NW
Cosmos 1980 Rocket 2.0 21:50:48 10° SSW 21:56:27 79° ESE 22:02:10 10° NNE
Cosmos 1802 Rocket 3.9 21:55:57 20° S 22:00:30 79° E 22:06:57 10° N
Envisat 2.9 22:00:26 54° SSE 22:01:38 86° ENE 22:06:44 10° NNW
Lacrosse 5 rocket 2.1 21:58:23 10° WNW 22:01:42 36° WSW 22:01:42 36° WSW
Cosmos 2298 Rocket 4.2 21:56:55 10° NNW 22:02:12 67° WSW 22:04:08 39° S
OTV 4 3.1 22:04:38 10° W 22:05:33 16° WSW 22:05:33 16° WSW
MetOp-B 4.3 22:07:39 52° ENE 22:07:39 52° ENE 22:12:50 10° N
Cosmos 1937 Rocket 3.4 22:03:12 10° NNW 22:08:31 88° ENE 22:09:16 67° SSE
Cosmos 1726 Rocket 4.2 22:14:23 46° NNE 22:14:23 46° NNE 22:17:33 10° N
Cosmos 2016 Rocket 3.8 22:11:09 41° S 22:13:26 84° E 22:19:38 10° N
H-2A R/B 4.0 22:17:51 15° NE 22:17:51 15° NE 22:19:22 10° NNE
Cosmos 990 Rocket 3.9 22:15:45 10° NNW 22:20:53 83° NE 22:20:53 83° NE
Tiangong 1 3.8 22:18:12 10° NW 22:19:22 19° NW 22:19:22 19° NW
Cosmos 1939 Rocket 4.1 22:25:53 38° W 22:25:58 38° W 22:29:52 10° NNW
Cosmos 2263 Rocket 4.0 22:22:47 10° NNE 22:25:29 17° NE 22:25:29 17° NE
Cosmos 2227 Rocket 4.5 22:24:24 10° WNW 22:28:08 18° W 22:31:51 10° SW
Cosmos 2322 Rocket 3.7 22:32:38 23° NE 22:32:38 23° NE 22:34:43 10° NNE
ERS-1 Rocket 4.2 22:28:09 29° SW 22:29:48 36° W 22:34:26 10° NNW
Cosmos 1825 Rocket 4.3 22:25:49 10° NNW 22:29:39 51° WNW 22:29:39 51° WNW
Cosmos 2098 Rocket 4.0 22:29:39 59° S 22:31:07 87° E 22:37:11 10° N
SPOT 1/Viking Rocket 4.2 22:36:07 48° NNE 22:36:07 48° NNE 22:40:02 10° N
Meteor 1-21 4.4 22:29:41 10° NNW 22:35:27 70° W 22:35:57 66° SW
Lacrosse 5 2.3 22:31:52 10° NW 22:36:04 60° WNW 22:36:04 60° WNW
SPOT 5 3.3 22:39:47 60° WNW 22:39:47 60° WNW 22:44:05 10° NNW
H-2A R/B 3.4 22:40:47 35° WNW 22:40:47 35° WNW 22:43:35 10° NNW
Meteor 2-9 Rocket 4.4 22:41:32 66° NNW 22:41:32 66° NNW 22:46:13 10° N
USA 245 4.4 22:41:37 79° NE 22:41:37 79° NE 22:47:43 10° N
Cosmos 1864 Rocket 4.3 22:41:44 84° N 22:41:44 84° N 22:47:40 10° N
Cosmos 967 Rocket 4.4 22:36:58 10° NNW 22:43:06 84° N 22:43:06 84° N
Cosmos 2297 Rocket 4.4 22:39:33 10° NW 22:43:26 19° W 22:46:11 14° SW
DELTA 2 R/B (1) 4.3 22:38:10 10° WNW 22:42:25 46° WSW 22:42:25 46° WSW
Cosmos 1763 Rocket 4.5 22:41:43 30° WSW 22:43:43 43° WNW 22:48:34 10° N
Cosmos 2227 4.5 22:45:06 10° NNW 22:50:02 65° NW 22:50:02 65° NW
Tsikada Rocket 4.0 22:45:26 10° N 22:51:23 78° N 22:51:23 78° N
USA 215 4.0 23:03:14 39° NE 23:03:23 39° NE 23:09:22 10° NNW
Terra 4.0 23:11:26 19° N 23:11:26 19° N 23:12:53 10° N
Milstar 3 Cent rocket 4.2 23:06:27 10° W 23:22:31 47° SSW 23:22:31 47° SSW
SL-16 R/B 3.7 23:28:06 31° N 23:28:06 31° N 23:31:13 10° N
H-2A R/B 4.4 23:58:29 18° NW 23:58:29 18° NW 23:59:51 10° NNW
